Theta_e
292 292 292 292 293 293 294 294 295 296 296 296 295 293 291 290 286 282 281 283 283 286 288 285 287 290 290 289 289 286 286 286 285 286 285 285 286 285 284 285 286 287 288 288 288 288 289 289 290 290 291 291 291 292 292 292 292 292 292 292 293 294 295 295 295 295 295 295 296 297 297 298 298 298
291 291 291 291 292 292 293 293 293 293 295 294 295 294 293 292 288 286 283 283 286 285 288 287 286 288 288 288 287 286 286 286 285 285 285 284 284 285 284 285 286 286 287 287 288 288 289 289 289 290 290 290 290 291 291 291 291 291 292 293 293 294 294 295 294 294 294 295 295 296 296 297 297 297
290 289 289 290 291 291 292 292 292 292 293 294 294 293 293 292 291 289 286 284 286 288 286 287 288 287 287 287 286 286 286 284 285 285 285 284 284 283 283 283 284 285 286 286 287 288 289 289 289 290 289 289 290 291 291 290 290 290 291 292 293 293 294 293 293 293 293 294 294 294 295 296 296 297
289 289 288 289 290 290 291 291 291 291 291 292 292 292 292 291 291 291 288 287 286 289 287 287 287 287 286 286 285 285 285 284 284 284 284 284 283 281 281 283 284 284 285 286 287 288 289 289 289 289 289 289 289 290 290 290 290 290 291 292 292 292 292 292 292 292 292 292 293 294 294 295 295 296
289 288 288 288 289 289 289 290 290 290 290 290 290 291 291 290 290 289 289 287 285 286 288 287 286 286 286 284 285 283 283 281 281 283 283 283 282 282 282 283 284 284 285 285 286 288 289 289 289 289 288 288 289 289 289 289 289 290 291 290 291 291 291 291 291 292 292 292 293 294 294 295 295 296
289 288 287 287 287 288 288 289 289 289 289 289 289 289 289 288 289 289 288 287 285 283 285 285 286 285 285 283 285 283 283 281 281 280 281 282 282 282 282 283 284 284 284 285 286 287 288 289 289 288 288 288 288 288 289 289 289 290 290 289 290 290 289 290 290 290 291 292 293 293 294 294 295 295
288 287 287 286 287 288 287 288 288 288 288 288 288 287 288 287 287 287 288 287 285 283 283 284 283 283 284 283 283 284 284 283 282 281 281 281 282 283 282 282 284 285 285 285 286 287 288 289 288 288 288 287 287 288 288 289 289 289 289 289 288 288 288 289 290 290 291 292 292 292 292 293 293 293
287 287 286 286 286 286 286 286 286 287 287 287 287 287 287 287 286 286 287 287 285 284 282 283 282 283 282 283 284 284 283 282 281 281 281 282 281 281 282 282 282 284 286 286 286 287 288 288 288 287 287 287 287 287 288 288 288 288 288 287 287 286 287 288 289 289 290 290 291 291 292 292 292 292
287 287 286 286 286 285 285 285 285 286 286 286 286 286 286 286 285 285 285 285 285 284 283 282 283 283 282 283 283 282 280 280 280 281 280 281 281 281 282 282 283 284 286 285 285 286 287 287 287 287 287 287 287 287 287 287 287 287 287 286 285 286 287 288 288 288 289 289 289 290 291 291 292 292
288 287 287 286 286 285 284 285 285 285 285 286 285 285 285 285 285 284 284 284 284 284 283 282 281 282 281 281 280 281 280 279 278 279 280 281 281 281 280 281 282 283 283 282 283 284 285 286 286 286 286 286 286 287 286 286 286 286 285 284 284 285 286 287 287 288 288 288 289 289 289 290 291 291
287 287 287 286 286 285 285 285 285 285 285 285 285 285 285 285 284 283 283 283 283 283 282 282 281 280 281 280 278 279 280 280 279 278 278 278 280 281 280 280 281 282 282 283 284 283 283 284 284 285 285 286 286 286 286 286 286 285 284 284 284 285 286 287 287 287 288 288 288 288 288 289 290 291
286 286 286 286 286 286 286 285 285 285 284 285 284 285 285 284 284 283 283 282 282 282 282 281 280 280 279 279 279 280 279 278 278 279 279 277 278 279 280 280 281 281 281 281 282 284 284 284 284 284 285 285 285 285 284 284 284 283 283 283 284 285 286 286 287 287 287 287 287 288 288 288 288 289
286 286 286 286 286 286 286 286 286 286 286 285 284 284 284 284 284 283 283 282 282 282 282 280 280 279 278 278 277 276 276 276 277 279 279 279 280 280 280 280 282 282 280 281 281 280 281 280 281 281 280 281 283 282 283 282 283 283 283 283 284 285 285 286 286 286 286 286 287 287 287 287 287 287
285 285 286 286 286 285 285 285 286 287 287 287 286 285 284 284 284 283 283 282 282 281 281 280 279 278 277 278 278 277 277 278 279 279 279 278 280 280 279 280 281 282 281 280 280 281 282 281 279 280 279 281 281 280 280 280 282 282 283 283 284 285 285 286 286 286 286 286 286 286 286 286 286 286
284 284 285 285 285 285 285 285 286 287 288 288 288 288 287 286 285 283 283 282 282 281 281 281 280 279 278 278 279 278 278 278 278 278 279 279 280 278 277 276 279 282 281 280 279 279 281 280 278 278 279 279 280 280 280 282 282 282 283 283 284 284 285 285 285 285 285 286 286 286 286 286 286 286
285 284 284 285 285 285 285 285 284 285 287 287 288 288 288 287 288 287 285 283 282 281 281 280 280 280 279 278 279 278 278 278 279 280 279 278 278 278 277 278 277 280 281 279 279 279 280 279 278 277 279 279 280 280 281 283 283 283 283 283 284 284 284 284 285 285 285 285 285 285 285 285 286 286
285 285 284 284 285 285 285 285 284 284 284 286 287 287 287 287 288 288 288 288 285 284 282 281 280 280 280 278 278 279 279 280 279 279 278 278 278 279 278 279 279 279 281 279 278 277 278 278 277 277 278 279 279 280 281 283 283 283 283 283 283 284 284 284 284 284 284 284 285 285 285 285 285 285
285 285 284 284 284 285 284 284 284 284 284 283 284 284 284 284 285 287 287 287 286 285 283 282 281 281 281 280 280 280 282 280 279 279 278 279 278 279 279 280 279 280 281 278 277 275 276 277 277 276 277 279 279 279 280 282 283 283 283 283 283 283 283 283 284 284 284 284 284 284 284 284 284 285
285 285 285 285 284 284 284 284 284 283 283 283 283 283 283 283 283 283 284 284 284 283 282 282 282 282 282 281 281 281 282 281 281 281 280 280 279 279 279 278 278 278 279 277 276 273 276 277 276 276 277 279 278 278 280 282 282 283 283 283 283 283 283 283 283 283 283 284 284 284 284 284 284 285
286 285 285 285 284 284 284 285 286 286 283 283 282 282 282 282 282 282 284 285 286 283 281 281 281 281 281 283 281 282 281 281 281 281 281 280 279 277 276 274 277 275 278 276 275 274 274 277 275 276 277 277 276 277 277 280 281 282 282 282 282 283 283 283 283 283 283 283 283 283 283 284 284 284
286 286 286 285 284 284 284 285 287 287 286 282 281 281 281 281 281 281 282 285 286 285 283 283 284 284 285 285 285 285 285 282 282 280 277 276 277 275 274 274 275 274 276 275 275 275 273 276 275 275 276 276 275 275 276 277 279 281 281 282 282 282 282 282 282 282 283 283 283 283 283 283 283 283
286 286 285 285 285 284 284 286 288 288 285 282 281 281 280 280 280 280 281 282 283 284 283 283 284 284 285 285 285 286 285 285 283 278 275 276 276 275 275 273 274 275 275 274 276 273 272 275 276 274 275 274 274 275 275 276 277 279 280 281 282 281 281 281 282 282 282 282 282 283 283 283 283 280
286 286 286 286 286 285 285 286 288 288 286 282 281 281 280 279 279 280 280 280 280 279 279 279 280 281 283 283 282 283 284 284 282 279 278 277 275 274 274 274 273 271 273 275 276 271 272 273 274 273 270 270 273 275 275 276 276 276 276 276 276 278 279 280 280 281 281 282 282 282 282 282 282 279
285 286 286 286 288 288 287 287 287 287 287 283 282 281 280 279 279 281 280 280 280 279 278 278 279 279 280 281 281 281 281 281 280 278 278 277 276 275 274 273 273 271 273 275 276 272 273 274 272 275 272 269 268 273 274 274 275 275 275 275 274 277 278 278 279 280 280 281 281 281 281 281 281 277
284 284 285 286 287 288 288 287 286 287 287 286 282 281 280 281 281 282 278 279 281 279 278 278 278 278 279 279 279 280 280 279 278 278 279 278 277 276 274 273 272 272 273 275 278 273 270 272 270 273 270 271 270 270 272 274 274 274 275 275 274 275 275 275 276 275 278 279 280 280 281 281 281 279
284 284 285 285 286 287 288 287 286 287 287 287 283 282 284 285 284 281 280 279 279 278 278 277 277 277 278 277 277 278 279 279 278 278 277 276 276 276 276 274 272 271 271 276 277 272 270 270 271 270 270 269 269 271 269 270 273 274 275 275 274 274 275 274 274 274 274 274 275 276 277 279 280 280
283 285 285 285 285 286 286 287 287 287 287 286 285 285 285 285 284 283 279 278 278 277 277 276 276 276 277 276 276 277 277 277 277 277 275 275 275 275 275 275 275 274 274 275 275 273 271 269 272 269 269 270 268 269 269 269 270 274 273 274 274 274 274 274 273 273 274 274 274 278 278 279 279 280
283 284 285 285 286 286 286 286 287 286 286 285 286 286 285 285 283 281 279 277 277 277 276 276 275 275 276 276 276 275 274 273 273 273 273 273 274 274 274 274 274 274 274 273 273 272 272 269 270 271 270 269 267 266 266 270 271 272 271 273 274 273 274 274 273 273 273 274 273 274 273 273 274 275
283 285 286 286 286 285 285 285 286 286 286 286 286 286 285 284 281 280 278 277 277 275 275 275 275 275 275 275 275 274 273 273 273 272 272 273 273 273 273 272 272 271 271 272 272 272 271 270 269 270 270 269 267 267 268 267 269 270 271 270 269 271 273 273 273 272 272 273 273 273 272 273 273 275
285 286 286 286 286 284 284 284 283 283 283 285 285 285 285 282 280 279 278 277 276 275 275 275 275 274 275 274 274 274 273 272 271 271 270 270 269 269 268 267 267 269 270 270 270 271 271 271 270 270 269 269 269 267 268 267 267 269 270 270 270 271 272 272 272 272 272 271 272 272 273 273 273 274
283 284 285 284 284 283 284 284 284 283 284 283 283 283 283 282 280 279 278 277 276 276 276 275 275 274 274 274 273 271 271 270 270 271 270 268 267 267 268 267 266 267 268 269 269 270 270 270 270 270 268 268 269 268 268 269 267 267 269 270 270 266 268 271 271 271 271 272 272 272 272 273 273 274
282 283 284 284 283 282 281 282 282 282 282 281 281 282 282 282 280 279 279 279 277 277 277 276 275 273 273 272 271 271 270 270 270 270 269 267 267 267 267 265 265 267 266 267 268 269 270 270 270 271 270 269 268 268 269 268 267 267 267 269 269 270 270 269 270 271 272 271 271 270 271 271 271 272
281 281 281 280 280 279 279 279 279 279 280 280 280 281 281 281 279 277 277 276 276 276 276 274 273 272 272 271 270 270 269 268 268 269 268 268 266 267 267 265 266 266 265 266 266 267 268 269 270 270 271 271 271 270 268 266 267 268 267 268 268 268 269 270 270 270 271 270 269 269 269 271 271 272
279 279 279 278 278 278 278 277 277 278 278 278 279 279 281 280 277 276 276 276 276 275 275 274 272 271 270 269 268 268 268 267 267 268 268 267 267 266 265 265 266 267 267 266 267 266 267 268 269 269 269 269 269 269 268 266 265 267 268 268 268 267 269 270 270 270 270 269 269 267 268 268 270 271
278 278 276 277 277 277 277 276 277 277 278 278 278 278 278 278 276 276 275 275 275 274 273 271 270 270 269 268 268 267 267 266 266 267 267 267 266 266 266 265 266 266 266 266 267 268 268 267 267 266 267 267 266 267 271 269 266 266 267 267 267 267 267 269 270 269 269 269 269 267 266 267 268 270
278 278 276 276 276 277 276 276 277 277 277 278 278 278 277 276 275 275 274 275 274 273 271 270 269 269 269 268 268 267 267 266 265 265 265 265 265 265 266 265 266 266 266 266 266 268 267 267 267 265 264 264 264 264 265 273 271 267 265 264 266 266 267 268 269 269 268 268 268 267 265 265 266 269
277 277 277 276 276 276 275 276 277 277 277 277 277 277 276 275 274 275 275 274 272 271 270 269 269 268 268 267 267 266 266 265 265 265 264 265 265 265 265 265 266 266 266 266 267 267 268 266 267 265 264 263 262 262 264 268 272 273 268 265 265 267 267 266 266 265 267 268 267 267 266 267 267 268
277 277 276 276 276 276 276 276 277 277 277 277 277 276 276 274 273 273 273 271 271 270 270 269 268 268 267 267 266 265 265 265 265 264 264 265 264 264 264 264 264 265 265 266 266 266 267 266 266 266 265 262 262 262 262 265 265 268 273 270 266 265 267 266 264 264 264 267 267 267 268 267 267 268
278 277 276 276 276 276 276 276 276 276 277 276 275 274 273 272 271 271 270 270 270 269 269 268 268 268 267 267 266 266 265 264 264 264 264 264 264 264 264 264 264 265 265 264 266 266 266 266 266 266 266 264 263 263 263 262 262 265 268 272 269 266 265 265 264 265 264 264 266 268 268 269 271 274
278 278 277 277 277 276 276 276 276 277 276 274 274 273 272 271 270 270 270 270 269 269 269 268 268 268 267 266 266 266 265 265 265 264 264 264 264 265 264 265 264 265 264 264 264 265 265 265 266 266 266 266 265 265 264 264 264 265 265 268 272 270 267 267 265 264 264 266 267 266 265 267 265 267
278 278 277 277 277 277 276 276 276 276 274 273 273 273 272 271 270 269 270 270 269 268 268 268 267 266 266 266 265 265 264 264 264 264 264 264 264 264 265 265 264 265 263 263 264 264 265 266 268 270 268 266 266 265 263 261 260 262 263 265 270 272 272 272 269 267 265 267 266 264 263 263 264 265
278 278 277 277 277 277 276 276 276 274 273 272 272 272 271 270 269 271 270 270 268 268 268 267 266 266 265 265 265 265 264 264 264 264 264 264 264 264 264 264 263 264 263 263 264 264 267 269 268 267 266 265 264 262 260 261 261 262 263 264 264 270 271 271 272 272 269 267 265 263 263 264 265 263
278 278 277 277 277 276 276 275 274 273 272 272 272 271 269 269 269 270 269 268 268 267 266 266 266 265 265 265 265 265 264 264 264 264 264 264 263 263 263 263 263 264 264 264 266 266 267 268 267 266 265 265 264 264 261 262 262 262 262 263 263 263 266 270 271 271 272 272 272 270 267 265 263 260
278 277 277 277 276 275 275 274 274 273 272 272 271 269 269 269 269 269 269 267 267 266 265 265 265 265 264 264 265 265 264 264 264 263 263 263 264 263 263 263 264 264 265 264 265 265 266 266 266 266 264 263 264 263 262 262 262 262 262 262 262 262 262 263 265 268 269 270 271 271 272 272 272 272
278 277 276 275 275 274 273 273 272 272 272 271 270 269 269 268 268 268 268 267 266 266 265 265 264 264 264 264 264 263 264 266 265 264 264 264 264 264 264 264 264 264 264 264 263 264 265 264 265 265 264 264 264 263 263 263 262 262 262 262 261 262 262 262 262 262 262 262 267 270 271 272 272 272
Wind_Speed
13 13 15 13 11 11 10 8 8 7 6 6 6 10 11 10 9 7 8 9 8 9 10 7 9 9 8 7 6 6 5 8 8 4 3 3 2 7 6 4 4 3 3 3 4 5 5 4 4 4 4 3 4 5 4 4 5 5 6 6 7 7 7 7 7 8 8 8 7 8 8 9 9 10
12 13 13 13 12 11 10 10 9 8 7 7 6 8 9 9 10 9 10 9 9 7 9 7 7 9 9 7 6 6 5 10 8 4 4 3 3 7 6 5 5 5 5 4 5 6 7 6 5 4 5 5 5 6 5 5 5 5 7 7 7 6 6 7 7 7 7 7 7 7 7 8 8 9
11 13 15 14 14 12 11 10 9 8 8 7 6 6 8 8 8 8 7 6 5 9 9 8 7 10 10 8 7 6 5 8 7 5 4 3 5 6 4 5 6 6 5 5 6 7 8 7 6 5 5 6 6 7 6 6 6 6 7 8 7 6 6 7 7 7 7 7 7 7 7 7 8 8
11 14 14 15 14 13 11 10 10 9 9 8 7 7 6 7 8 7 7 8 4 5 8 9 8 11 10 9 8 7 4 7 10 4 4 4 8 4 4 7 8 7 7 7 7 9 9 8 7 7 7 7 8 7 7 7 7 7 8 7 7 6 6 7 7 7 7 6 6 7 7 7 8 9
12 14 14 15 15 13 12 12 10 10 10 8 7 7 6 6 6 6 7 8 5 2 3 6 7 9 10 8 8 8 6 6 5 5 3 5 4 3 3 3 9 10 9 9 9 10 10 9 8 7 7 8 8 7 7 7 7 8 7 7 7 7 7 7 7 7 6 6 7 7 8 8 9 10
11 12 14 15 14 12 14 12 12 11 10 10 10 9 8 8 7 6 5 6 7 7 4 5 6 7 9 8 8 10 10 8 6 6 4 3 3 3 3 3 4 11 10 10 10 10 11 10 9 8 8 8 7 8 8 8 8 8 8 7 7 7 7 7 7 7 7 7 7 8 9 10 10 11
12 13 15 16 13 10 13 14 13 10 11 11 12 12 9 10 9 8 7 6 6 10 7 7 8 8 8 8 10 9 7 6 6 6 5 4 3 2 3 3 3 10 13 12 12 12 13 12 11 10 9 8 8 8 9 9 9 9 8 8 6 7 7 8 7 7 7 7 8 8 9 9 10 10
13 14 15 15 14 12 14 14 14 13 12 12 12 12 10 11 10 9 9 9 4 7 9 8 9 8 8 7 5 6 5 6 6 5 4 3 3 3 4 4 3 7 14 14 14 14 14 13 12 11 10 9 9 9 10 10 9 9 8 7 7 8 8 8 8 8 7 7 8 8 9 9 9 10
14 14 16 15 12 12 15 15 14 14 15 12 12 12 11 11 9 7 9 10 5 8 10 8 6 7 6 5 6 7 7 5 4 3 4 5 5 5 4 3 4 7 13 14 14 13 13 13 12 12 10 10 10 10 10 10 9 9 8 7 8 8 9 9 8 7 7 7 8 9 9 10 10 11
14 14 16 15 12 14 17 17 15 14 16 14 12 14 12 11 9 9 9 9 7 7 8 11 9 8 9 8 7 8 7 7 6 5 5 4 5 6 6 5 4 4 3 3 6 9 11 12 13 12 11 11 10 10 10 10 10 9 8 8 9 10 9 9 8 8 8 8 9 9 10 11 11 11
14 15 15 15 14 16 18 17 16 15 14 12 15 16 15 13 11 11 10 9 10 8 9 8 9 10 8 8 8 8 7 6 6 7 6 7 6 5 6 6 5 4 4 6 10 8 7 10 9 11 12 11 11 11 10 10 10 9 8 9 10 10 9 9 9 9 9 9 9 10 10 10 11 12
13 15 16 15 15 17 17 16 15 14 14 12 14 14 13 13 14 13 11 11 10 9 9 10 10 9 10 8 6 7 8 7 7 7 7 7 7 8 7 6 6 5 5 5 5 8 9 8 10 12 13 13 12 11 9 10 9 9 9 9 9 9 10 10 10 10 10 10 10 10 10 10 11 12
15 15 14 14 15 17 19 20 18 16 15 12 13 14 13 13 14 14 12 12 11 10 9 8 8 9 9 9 10 10 10 12 12 9 7 6 6 5 5 5 5 6 6 5 5 6 6 6 7 6 5 5 8 8 10 7 10 10 8 7 8 10 10 11 11 11 11 10 10 10 11 11 11 12
15 17 16 15 20 21 22 22 22 22 21 20 16 14 13 15 14 14 14 13 13 13 12 12 12 11 12 12 13 10 10 9 8 9 9 8 6 6 4 3 5 6 6 6 7 6 7 6 4 4 5 4 4 4 4 4 5 4 7 8 9 10 11 11 11 11 11 11 11 11 11 11 12 12
14 14 15 16 18 19 20 21 24 23 23 22 23 22 18 18 17 16 16 16 15 14 14 13 12 14 15 14 13 12 12 11 13 11 11 9 7 8 8 8 5 7 7 7 5 6 6 5 6 5 5 4 4 4 4 7 7 7 8 9 10 10 12 12 12 12 12 12 12 12 12 12 12 12
14 15 14 13 12 14 18 17 16 21 26 27 25 23 21 21 23 22 20 18 15 15 15 13 15 15 15 14 13 12 12 12 11 11 11 12 12 10 9 8 8 6 11 8 8 6 5 6 5 4 4 3 3 3 6 9 9 9 9 10 11 11 11 13 13 13 13 12 12 13 12 12 12 13
14 14 14 14 13 12 19 18 16 16 18 23 28 25 24 24 25 27 28 24 19 18 16 16 16 17 15 14 14 15 16 14 14 12 11 11 11 10 10 8 5 8 10 7 6 6 6 6 5 4 3 3 2 3 7 10 11 11 10 10 11 12 12 13 14 14 14 14 13 13 13 13 13 14
15 15 14 14 14 13 13 13 16 16 16 15 15 16 16 17 21 25 27 26 22 16 15 17 18 17 15 16 17 16 16 17 15 14 13 12 12 12 10 5 7 6 7 7 6 2 4 5 4 4 3 3 2 2 5 10 10 11 11 11 12 13 13 13 14 15 16 15 14 13 13 13 14 15
16 16 15 16 16 14 12 13 16 15 15 14 13 13 15 17 17 16 17 18 15 12 10 12 12 10 12 11 7 11 12 14 12 12 14 13 10 7 7 6 6 6 4 3 3 5 3 4 4 3 2 1 1 2 5 9 11 13 13 13 12 13 14 15 16 17 16 15 14 13 13 14 15 16
14 15 15 16 17 17 15 15 21 19 14 12 14 16 17 16 14 15 13 15 12 13 12 11 9 8 10 10 11 12 11 10 9 9 9 8 8 9 7 7 6 4 5 6 3 2 2 1 4 2 2 1 2 2 2 8 12 13 13 13 13 13 14 16 18 18 17 15 14 13 13 14 16 17
15 15 16 15 16 17 17 18 16 18 15 13 15 17 17 15 14 15 14 16 17 14 12 12 11 12 15 17 18 19 17 12 11 11 10 10 10 10 10 6 6 6 7 5 5 2 1 2 2 1 0 0 2 4 4 3 7 11 12 13 13 13 15 19 19 18 16 15 15 14 14 15 16 19
13 16 23 20 17 18 18 18 18 22 19 16 17 17 18 17 17 17 14 10 10 15 15 15 15 16 17 19 22 22 21 21 16 15 16 14 12 12 11 9 7 5 6 6 7 3 3 2 2 2 0 1 2 4 5 5 5 9 9 11 13 14 18 19 19 18 16 16 16 15 16 16 16 10
13 14 16 23 22 20 19 16 19 23 21 16 16 17 16 18 20 17 11 13 10 9 9 10 11 10 13 13 13 15 24 23 15 10 11 11 13 13 9 8 7 4 4 8 10 7 4 4 2 4 1 1 2 4 3 3 3 2 1 3 6 13 16 18 18 18 17 17 17 16 17 17 15 7
13 14 14 16 23 27 26 19 22 24 25 18 15 15 16 18 22 12 13 14 13 12 13 13 13 12 11 10 11 12 14 14 12 9 11 11 11 10 10 10 9 6 5 7 11 7 2 3 3 3 3 2 2 1 1 3 3 2 3 5 6 10 14 16 14 17 17 16 16 16 17 17 16 7
13 13 13 12 17 23 24 22 24 25 27 26 17 17 17 20 15 12 12 17 20 14 13 12 12 12 12 12 11 12 13 12 12 11 10 9 9 10 11 10 8 5 4 8 13 6 4 4 5 4 2 1 1 2 3 3 4 5 5 5 7 7 6 7 5 6 9 14 16 18 17 17 18 12
13 13 12 12 14 20 24 24 24 27 26 29 19 18 22 21 19 18 15 12 13 14 13 13 13 13 13 13 12 12 12 12 12 12 10 9 9 6 5 10 12 10 6 9 15 7 6 3 5 4 3 3 3 2 3 5 6 5 5 6 7 7 6 7 6 5 5 5 6 9 11 16 16 19
14 12 13 13 16 18 24 25 25 26 29 25 20 24 25 21 25 20 13 13 14 14 13 14 15 15 14 13 14 13 11 10 12 10 9 9 8 7 4 3 4 7 7 8 8 6 5 4 5 6 5 4 3 2 4 4 4 3 6 6 6 7 7 6 7 6 6 6 6 14 16 16 19 20
14 13 13 13 18 19 22 25 25 25 26 20 26 28 26 24 24 16 14 14 15 14 14 15 15 16 14 13 12 12 9 9 9 9 10 9 9 8 6 7 6 7 8 8 7 6 5 5 3 4 5 4 4 5 4 5 6 6 6 5 5 6 6 6 7 7 7 7 7 7 6 6 7 8
14 16 21 20 18 19 22 25 26 24 27 31 27 30 31 24 15 16 15 15 14 13 15 18 16 13 13 12 7 9 11 11 10 10 8 8 8 7 6 6 7 7 6 5 7 7 6 6 5 5 5 4 5 4 4 4 4 6 5 4 5 6 7 7 7 7 7 7 7 7 7 7 7 7
23 24 25 25 19 20 20 17 15 13 14 25 31 29 28 16 14 15 15 15 16 17 17 16 15 13 11 10 11 12 10 12 11 11 11 11 9 8 7 7 6 5 5 5 5 6 6 7 7 6 5 5 6 5 6 4 6 7 6 7 7 6 7 8 8 8 7 7 7 7 7 7 8 8
18 20 20 13 16 15 20 21 18 17 17 15 18 17 16 14 14 14 14 16 16 15 13 12 12 12 12 11 12 13 13 11 8 9 12 10 9 6 7 7 6 6 4 5 4 6 7 7 7 8 7 7 6 7 6 5 7 6 7 7 6 7 4 4 5 7 7 8 7 7 7 8 8 9
13 13 13 15 13 12 13 14 12 12 11 12 12 13 13 12 12 14 16 15 14 14 14 13 11 11 13 14 14 12 11 10 10 10 11 11 9 6 9 6 6 6 6 6 5 6 6 6 7 7 8 8 7 7 6 6 7 7 7 7 8 9 8 8 8 7 7 7 8 8 8 8 8 8
9 9 10 9 11 11 12 12 12 11 11 11 12 13 12 11 11 11 13 16 15 13 11 12 13 13 12 12 11 12 11 10 11 9 10 8 9 8 6 5 8 8 7 7 6 6 6 5 4 6 7 7 8 7 6 7 8 7 8 8 7 8 7 7 7 7 6 7 8 8 8 8 8 8
10 11 9 9 11 12 12 12 12 10 10 11 11 11 13 11 10 12 13 14 13 12 13 13 13 13 13 12 12 12 11 10 9 10 11 11 10 8 7 8 8 7 7 7 7 7 7 6 5 4 4 5 5 5 5 6 8 6 7 6 7 7 7 6 7 6 7 7 8 9 8 8 8 9
12 9 7 11 11 12 11 10 13 13 12 12 11 11 10 10 11 13 13 13 12 12 12 11 12 13 14 14 13 13 12 12 11 10 8 7 6 6 8 7 8 8 8 7 7 7 7 7 7 6 6 6 6 8 13 12 8 9 6 7 6 7 7 6 7 7 8 8 7 9 10 9 8 7
10 11 8 8 11 12 12 13 13 11 11 12 11 10 10 10 10 12 13 12 12 12 11 12 12 13 13 13 13 13 13 13 13 12 10 7 8 7 8 7 8 8 7 7 7 6 6 6 7 7 7 6 5 5 4 19 21 8 9 7 5 5 6 6 7 8 7 8 8 8 10 12 11 7
12 11 10 11 12 9 9 12 11 11 11 11 11 11 11 10 9 10 10 11 12 12 12 12 12 12 12 13 13 12 13 14 13 9 9 8 7 8 9 8 8 7 7 6 6 6 7 7 7 6 6 5 5 7 6 1 17 20 7 7 5 6 6 5 6 8 8 9 9 8 10 12 14 12
12 11 9 8 11 11 11 11 10 10 10 10 10 10 9 8 9 9 10 11 12 11 12 12 12 12 11 12 13 12 12 11 10 9 9 8 10 10 9 10 8 8 7 6 6 6 5 6 7 7 6 6 5 6 4 2 2 7 14 10 7 6 5 6 7 8 9 7 8 10 9 11 14 13
11 10 10 10 11 10 11 11 11 11 10 9 9 9 9 9 10 10 11 11 12 12 12 12 12 13 14 14 14 15 14 13 11 9 10 8 10 12 10 10 8 7 7 6 6 6 6 6 7 6 6 6 7 3 1 2 4 2 6 13 8 6 7 7 9 8 8 8 8 9 9 11 15 24
10 8 9 10 10 10 10 9 9 10 9 9 10 10 11 11 11 11 12 12 12 12 12 12 13 12 12 13 13 12 13 15 13 12 12 10 10 10 10 9 9 9 7 7 7 6 6 7 7 6 5 5 2 0 0 3 5 5 6 11 20 16 10 6 8 8 8 7 8 9 12 10 11 11
9 8 7 9 10 10 10 10 9 8 8 9 10 10 11 12 13 12 13 13 12 12 11 11 12 13 12 12 12 14 13 10 10 10 10 9 9 9 10 10 7 7 8 6 6 7 7 7 6 8 5 1 1 2 2 4 7 5 6 7 12 16 17 14 11 9 9 9 8 9 11 13 13 13
7 7 6 8 10 10 9 9 9 8 9 9 10 10 10 11 11 16 15 16 13 12 11 11 11 11 11 12 13 12 11 12 12 10 10 10 10 9 10 8 8 8 7 7 8 6 5 4 5 3 3 2 1 2 6 7 8 7 4 3 3 9 14 17 19 18 13 9 8 9 10 11 9 12
7 6 7 8 9 9 8 9 9 9 9 9 9 9 9 10 10 12 10 11 10 10 10 10 11 11 11 12 12 12 12 11 11 11 10 10 9 8 8 7 7 7 7 5 4 5 4 4 4 4 3 2 4 5 7 7 7 7 6 5 5 4 5 12 17 20 21 23 20 16 12 11 10 14
5 5 6 7 7 8 8 9 9 9 10 9 9 9 10 11 12 12 11 11 12 12 12 12 12 13 13 13 12 10 10 10 10 11 10 9 8 8 8 8 7 6 6 5 4 4 3 3 3 4 4 5 4 5 8 7 8 8 7 7 5 5 8 6 7 12 15 17 19 21 24 25 23 25
4 5 5 6 7 7 8 8 9 9 10 9 9 10 10 10 10 10 10 11 12 12 13 12 12 12 12 12 13 12 10 11 10 8 9 8 8 8 7 8 7 7 6 6 5 4 4 4 3 3 4 4 4 5 7 7 9 8 8 8 9 7 7 6 8 9 9 8 11 18 20 23 24 26
Wind_Direction
222 225 220 220 218 216 216 217 218 216 211 209 174 184 184 180 176 177 198 207 196 197 176 172 191 183 176 172 164 154 172 150 165 176 157 160 174 157 169 197 224 237 236 256 262 257 260 258 258 273 288 299 294 288 291 314 313 315 310 300 300 309 319 322 333 332 332 331 325 324 325 328 330 331
224 227 226 224 226 218 213 216 213 215 216 213 196 193 200 191 194 183 190 208 193 179 180 175 165 179 177 168 161 166 181 152 172 158 164 167 182 163 182 204 228 233 233 245 254 255 256 258 257 266 279 287 289 287 293 294 296 300 299 295 295 300 304 310 319 319 317 314 317 320 325 328 328 329
224 227 228 225 228 221 218 215 211 214 215 216 211 202 202 208 211 190 191 199 190 165 177 185 161 169 172 166 160 169 162 161 174 173 167 182 165 147 199 217 227 229 226 236 243 248 249 251 256 262 269 272 270 272 276 279 286 291 289 286 287 296 302 312 310 306 306 312 316 323 326 327 331 333
225 229 229 227 225 221 219 217 211 209 212 212 212 211 207 210 212 192 195 211 167 172 170 167 155 163 163 165 163 169 146 164 178 177 181 163 139 175 206 211 214 217 220 227 235 241 239 241 244 250 254 260 263 267 270 275 283 284 278 282 293 297 298 296 296 297 304 310 313 318 323 329 333 336
228 230 232 231 228 222 220 219 213 211 209 209 215 212 212 214 208 196 190 201 134 90 123 144 153 160 155 167 173 167 164 155 179 195 184 175 173 186 207 191 200 206 212 219 230 236 235 234 238 241 244 250 258 264 271 278 280 277 279 285 284 284 286 289 289 294 300 302 310 319 326 332 337 341
225 229 232 233 229 221 224 221 217 211 206 205 208 211 207 211 209 209 186 192 151 158 153 126 133 158 169 170 179 178 177 173 166 181 187 182 178 194 195 213 198 200 204 214 225 233 233 234 235 236 241 248 256 264 271 271 271 269 268 271 275 286 295 291 288 290 295 304 315 325 333 338 342 345
224 227 232 234 229 221 223 222 219 208 208 205 209 211 204 211 210 207 209 191 168 162 171 153 152 168 174 185 181 183 178 165 162 168 181 170 175 193 209 215 226 202 202 209 219 225 227 228 228 230 236 244 253 262 266 267 268 267 266 271 282 289 287 285 281 286 297 310 323 332 336 338 339 340
228 229 233 232 224 219 223 222 217 212 208 205 207 209 207 210 208 201 206 219 170 169 156 177 168 167 165 184 166 173 158 161 165 170 158 159 178 186 207 220 227 206 200 205 215 223 223 224 224 227 232 239 248 255 261 263 265 267 272 279 286 285 282 280 283 291 306 318 328 330 330 332 335 336
232 234 235 234 220 218 224 225 218 215 209 205 203 206 207 206 203 195 202 209 191 164 171 154 159 152 158 163 151 163 162 160 159 160 169 173 182 193 203 208 223 226 211 209 218 227 228 225 226 227 231 239 246 253 261 267 269 271 276 280 280 278 275 278 287 300 310 321 324 326 328 330 332 336
235 238 239 236 222 221 223 224 219 216 211 206 202 206 205 200 193 196 199 198 199 167 170 158 151 164 163 166 164 170 167 166 165 173 181 182 191 187 194 204 204 209 208 207 222 231 231 229 228 228 233 241 248 254 257 261 266 269 272 274 273 272 277 288 298 306 314 319 322 322 325 327 330 333
240 239 240 238 228 228 228 228 221 216 214 208 207 206 203 195 191 194 191 190 191 181 158 161 160 155 166 166 159 165 168 173 179 178 173 196 193 192 193 199 195 192 199 213 215 211 210 219 218 224 232 241 247 250 249 254 258 264 266 268 269 275 289 298 302 307 310 314 315 316 319 324 327 330
241 239 239 237 232 230 231 228 227 219 216 211 214 210 201 195 193 194 191 190 193 186 173 170 165 164 159 163 145 140 157 172 196 201 193 188 180 189 194 202 189 181 184 202 207 217 223 230 229 234 238 240 239 236 241 247 250 253 259 261 272 289 297 301 300 301 305 306 307 312 318 323 328 330
246 245 243 239 235 234 235 232 228 222 217 210 214 213 201 201 197 198 193 193 191 192 181 173 163 159 166 172 158 161 177 189 187 176 179 204 193 169 175 199 203 178 185 200 198 201 202 214 216 207 206 219 218 225 229 239 245 245 247 269 289 295 296 295 295 296 298 302 308 314 320 323 325 326
248 246 246 243 237 234 234 232 230 228 223 220 218 214 199 200 201 200 195 194 195 191 189 186 173 176 188 181 179 173 182 169 156 164 179 189 183 156 179 190 202 189 185 192 205 200 192 197 214 212 213 214 199 212 212 211 211 240 273 282 288 291 291 291 293 296 300 305 309 312 314 317 318 318
253 249 245 245 241 236 234 233 230 230 229 227 225 222 211 206 202 197 201 203 194 194 198 192 186 191 188 188 183 177 165 172 179 177 178 175 170 176 176 196 183 189 184 204 203 204 181 176 211 215 208 201 199 215 219 233 241 257 272 281 285 287 290 293 295 296 299 301 304 306 309 312 313 312
253 251 248 244 240 234 234 233 230 230 230 229 228 225 221 218 216 212 203 199 199 199 200 194 199 193 191 183 176 175 170 174 179 181 176 181 185 181 194 196 192 179 175 190 200 205 169 176 211 221 210 196 199 221 238 247 255 264 274 278 280 284 287 290 292 293 295 298 300 302 306 310 312 313
254 251 249 250 241 237 230 228 227 228 228 229 229 228 225 224 220 221 223 219 206 194 199 200 204 199 184 176 189 182 176 171 175 169 174 184 191 193 196 199 150 157 170 177 199 197 186 175 199 213 208 197 201 228 253 260 265 272 274 274 275 277 282 287 290 292 296 298 298 301 306 310 313 312
254 252 253 252 250 242 229 224 227 227 227 225 222 223 224 226 226 225 224 223 221 218 210 203 203 200 188 192 191 180 172 170 175 172 180 180 182 189 187 144 129 134 157 182 180 183 199 177 188 212 198 173 211 219 253 262 267 273 274 274 276 280 284 288 290 293 295 295 297 302 308 310 309 306
251 251 253 253 254 251 236 227 225 222 220 218 217 217 219 223 222 218 219 220 218 213 215 218 217 202 197 200 166 165 175 181 176 175 174 171 168 134 89 70 115 127 154 165 184 186 158 176 186 209 165 160 234 232 259 268 272 274 275 275 276 279 284 287 291 292 292 293 298 302 304 305 303 301
250 250 247 250 252 251 250 238 222 217 213 211 212 216 220 221 221 222 216 215 211 210 209 210 199 180 172 163 161 166 164 164 144 115 108 106 128 138 147 158 161 152 169 161 183 167 183 182 163 192 134 153 250 273 270 270 272 270 268 265 266 273 281 286 288 287 286 290 294 298 299 299 298 297
250 249 247 245 248 247 248 241 204 203 185 209 209 217 220 219 219 225 220 209 202 187 176 176 174 158 156 155 158 161 158 155 146 134 135 161 156 156 171 173 170 178 165 170 178 173 167 208 170 178 230 119 284 281 273 269 270 270 263 257 259 267 280 284 283 282 285 289 292 294 293 292 292 292
248 245 243 242 244 247 246 238 191 201 194 209 211 215 217 217 218 224 213 198 195 173 164 167 167 168 161 160 163 164 161 156 155 159 171 170 159 181 184 173 169 156 157 171 158 140 199 149 174 148 4 10 246 249 255 263 263 264 262 257 261 275 282 281 281 282 286 288 289 291 289 287 289 294
248 249 243 237 237 241 245 221 192 199 191 209 209 213 213 217 221 212 162 180 183 173 174 177 169 172 171 164 162 165 164 163 164 169 161 152 167 173 174 162 132 139 200 166 159 145 195 137 211 128 94 295 239 193 237 259 250 220 216 269 274 278 279 280 282 284 286 288 288 286 283 282 285 282
249 248 247 241 235 234 234 217 204 202 195 204 211 212 214 217 224 193 181 187 190 188 188 186 181 179 173 170 168 169 167 164 158 151 158 163 169 171 169 176 172 156 152 149 160 133 160 143 163 136 149 128 272 89 143 271 275 258 263 274 270 277 279 279 280 281 282 284 282 280 277 276 279 276
248 247 246 247 235 230 226 213 209 205 201 202 210 211 219 218 217 171 182 196 188 187 188 189 185 183 181 181 179 175 171 166 161 157 159 160 168 172 171 170 175 131 112 146 150 117 147 139 157 131 142 137 255 333 281 269 259 257 266 266 271 271 268 269 268 273 284 283 280 276 273 274 276 277
247 244 246 246 237 222 215 216 210 208 208 202 204 216 218 213 192 180 193 186 184 191 189 188 189 188 187 183 181 179 173 168 160 160 154 151 161 176 195 180 168 159 145 157 150 135 126 141 163 145 160 164 238 229 283 281 270 263 262 259 257 263 265 275 276 273 272 264 264 266 267 271 275 278
244 244 244 243 235 214 211 212 210 209 211 213 212 213 214 203 187 181 183 183 187 192 190 189 193 192 190 184 181 179 171 160 154 150 141 142 139 142 138 116 85 98 121 131 136 132 131 132 150 163 172 179 174 224 234 255 282 270 248 244 246 258 260 262 269 271 268 269 263 273 277 279 280 280
243 244 240 237 234 222 213 211 209 211 212 213 219 219 213 197 185 183 188 186 190 188 186 190 192 195 190 183 178 173 153 141 136 128 131 129 135 135 138 129 107 110 110 123 135 135 139 143 146 156 166 178 178 192 224 243 248 262 270 271 266 266 267 265 267 263 262 265 264 260 257 265 267 277
242 240 239 236 227 212 209 211 212 214 215 215 214 216 216 201 184 190 190 190 186 188 190 194 192 189 185 178 152 120 125 126 122 125 126 124 124 125 118 116 110 108 102 111 133 149 154 160 166 171 175 190 190 215 211 240 248 259 256 279 269 265 268 258 252 261 264 258 262 266 263 262 266 264
239 241 243 241 219 202 204 209 212 216 216 222 224 221 214 203 195 191 192 189 190 194 194 192 187 182 167 156 151 143 134 142 156 150 144 141 139 136 132 113 110 103 107 120 135 153 166 175 176 177 179 197 203 209 221 229 249 253 252 246 258 280 267 265 263 257 256 267 265 265 262 260 263 265
246 246 244 227 214 210 205 206 210 215 215 213 219 221 218 206 197 193 191 191 192 192 187 186 183 173 164 151 143 157 164 161 148 145 149 143 145 130 143 132 130 132 140 141 162 175 181 185 185 186 184 199 204 212 216 225 244 249 254 256 254 249 255 261 264 261 265 262 265 265 265 262 259 255
241 239 237 227 212 202 203 211 210 215 211 208 210 212 215 207 196 196 184 182 188 190 188 181 168 159 162 167 168 156 157 158 155 148 148 147 138 137 145 129 152 143 139 152 166 184 189 192 193 199 203 202 207 211 212 224 236 243 258 255 257 261 259 253 254 259 258 269 271 265 261 260 261 262
237 234 228 210 208 197 201 205 209 208 205 205 207 208 211 203 189 182 182 188 191 186 174 173 170 169 163 162 156 155 153 157 154 148 141 139 128 147 146 129 150 153 154 162 163 172 182 195 214 217 219 222 220 215 202 225 229 229 243 251 257 257 257 252 254 261 270 270 265 267 267 262 262 263
241 232 219 202 202 200 197 201 204 198 190 195 198 205 206 198 184 181 187 187 185 175 178 170 162 165 161 156 155 154 153 143 145 152 150 153 153 146 153 146 159 156 155 160 162 163 169 173 179 207 241 255 270 252 227 227 240 234 237 247 244 256 254 260 260 261 266 265 276 278 271 269 267 266
242 227 204 211 206 204 199 192 200 196 197 195 195 197 194 192 185 182 183 185 177 173 166 162 161 160 159 159 158 156 155 151 149 150 148 138 139 141 145 139 155 155 159 158 161 159 157 164 171 186 209 219 231 243 223 221 233 235 241 240 243 249 256 254 264 269 271 275 274 277 279 270 258 249
238 234 217 199 206 205 205 205 202 196 196 198 193 188 188 190 182 182 184 177 167 165 159 158 163 163 163 160 161 160 157 153 154 153 150 144 146 143 149 150 157 155 158 164 161 157 156 166 174 187 191 203 209 244 253 213 207 211 216 239 234 244 258 261 266 273 276 274 271 274 279 284 281 261
240 231 222 208 211 198 197 203 196 194 195 194 191 186 187 183 174 178 168 153 159 161 161 158 162 164 162 162 159 159 157 156 155 144 142 144 142 149 144 151 154 157 156 167 159 159 162 170 188 189 189 193 209 232 240 71 204 206 194 225 243 242 254 264 267 270 264 269 272 268 271 283 286 284
232 228 216 204 208 206 208 207 198 197 195 192 189 181 175 157 151 150 146 154 158 157 158 162 163 162 163 160 157 157 158 153 140 139 150 146 148 155 154 152 152 158 156 156 162 166 175 171 192 192 192 194 201 233 258 218 129 225 220 231 246 251 248 266 264 263 270 262 266 273 276 275 280 286
230 221 217 210 208 202 204 201 198 198 190 182 176 169 151 142 144 144 154 159 159 158 162 164 170 170 168 168 165 161 160 157 154 148 148 152 154 153 153 151 142 152 149 161 165 167 183 185 195 196 197 197 204 217 179 236 241 244 256 253 260 265 257 251 262 263 267 280 277 272 262 265 276 284
231 224 210 206 204 202 201 196 195 194 183 171 166 160 153 153 154 155 157 160 164 170 168 170 168 166 166 168 162 155 157 161 160 157 153 146 148 147 145 146 145 151 146 157 169 176 190 197 199 194 202 202 199 128 140 251 262 255 252 257 254 254 253 253 260 268 274 271 283 293 291 292 285 285
215 223 208 198 202 195 193 191 188 180 170 163 160 157 159 156 156 163 167 168 165 165 166 165 161 161 162 160 160 153 149 147 139 142 139 133 129 131 137 133 134 152 148 166 169 187 188 196 192 198 168 101 74 22 326 271 257 245 229 232 234 249 260 264 266 270 274 285 290 286 291 296 301 301
204 211 196 189 198 196 185 183 170 164 159 163 162 158 154 156 164 165 165 166 160 161 155 154 153 153 154 155 151 147 139 143 144 143 140 138 138 134 140 138 145 156 156 168 178 180 181 159 138 142 97 128 123 216 241 244 262 266 249 241 239 259 264 268 272 275 279 288 297 292 290 292 289 286
197 196 196 190 192 186 174 168 163 156 156 158 159 151 148 154 156 162 156 153 152 151 149 149 150 148 149 146 147 146 142 137 136 136 135 137 135 136 145 148 152 157 154 154 153 148 162 160 154 145 165 180 215 221 245 253 262 275 278 267 257 235 247 267 275 278 280 279 277 276 278 282 296 289
184 178 184 177 171 166 163 158 155 151 148 153 150 148 155 155 162 164 157 152 155 154 152 150 150 149 144 142 142 141 140 140 138 137 137 136 137 135 140 144 147 151 147 152 153 151 159 164 180 181 191 213 212 225 246 259 265 265 272 273 266 267 273 268 264 270 273 273 274 276 275 274 272 272
152 152 157 149 154 149 147 146 143 141 142 143 150 158 162 158 158 156 153 153 153 148 149 151 147 141 132 139 139 130 137 141 134 127 128 129 128 135 136 144 144 152 153 157 152 168 170 170 189 187 202 216 227 238 252 256 264 275 273 277 280 276 271 279 283 281 274 270 261 268 275 277 280 282